Location: Cazarilh
(42.9578°N, 0.5819°E)
Time: 01:39:52
(UTC+00:00)

STARLINK 1036 - Pass Details

Date: 11 December 2019
Orbit: 432 x 434 km, 53.0° (Epoch: 17 January)

Event Time Altitude Azimuth Distance (km) Brightness Sun altitude
Exits shadow 05:13:30 39° 161° (SSE) 626 4.1 -22.0°
Drops below altitude 10° 05:15:47 10° 140° (SE) 1,463 6.5 -21.6°
Sets 05:17:52 0° 137° (SE) 2,321 7.7 -21.2°
